RADUGA 20 1 17611U 87028A 21063.24583455 -.00000106 00000-0 00000-0 0 9997 2 17611 15.8879 343.2354 0028430 118.1303 74.4298 0.95961587119784 SL-12 R/B(2) 1 17705U 87028D 21063.64642885 -.00000295 00000-0 00000-0 0 9997 2 17705 14.1362 337.0219 0029624 63.1570 143.8826 0.99880294125187